Location: Mentone
(34.5413°N, 85.5351°W)
Time: 03:06:51
(UTC-05:00)

Amateur Radio Satellites - All Passes

Search period start: 24 March 2017 02:36
Search period end: 25 March 2017 02:36
Location: Mentone, 34.5413°N, 85.5351°W

Satellite Date Start Highest point End Downlink Frequencies (MHz)
Time Altitude Azimuth
Gurwin Techsat 1B 24 Mar 02:36:56 02:42:17 80° 103° (ESE) 02:47:35 435.225
Oscar 19 24 Mar 02:46:59 02:51:52 44° 288° (WNW) 02:56:44 437.125/150
ITAMSAT 1 24 Mar 02:49:49 02:52:38 15° 93° (E) 02:55:26 435.822/435.867
BEESAT 24 Mar 02:55:18 03:00:05 84° 255° (WSW) 03:04:53 436.000
ITUPSAT 1 24 Mar 03:09:34 03:14:18 60° 258° (WSW) 03:19:03 437.325
AO-7 24 Mar 03:11:46 03:18:23 26° 97° (E) 03:24:56 .
O/OREOS (USA 219) 24 Mar 03:12:57 03:17:16 39° 66° (ENE) 03:21:34 437.305
MOZHAYETS 4 24 Mar 03:38:43 03:43:20 74° 258° (WSW) 03:47:56
KKS-1 24 Mar 03:42:33 03:46:07 24° 69° (ENE) 03:49:41 437.445
ISS 24 Mar 03:46:09 03:48:19 16° 30° (NNE) 03:50:30 437.550
Tancredo 1 24 Mar 03:59:07 04:01:41 21° 34° (NNE) 04:04:14 437.200
Gurwin Techsat 1B 24 Mar 04:19:55 04:21:29 11° 298° (WNW) 04:23:02 435.225
CUBESAT XI-V 24 Mar 04:23:11 04:27:35 48° 74° (ENE) 04:32:01 437.345
STARS 24 Mar 04:26:35 04:30:29 31° 71° (ENE) 04:34:24 437.465
ITAMSAT 1 24 Mar 04:27:18 04:32:22 54° 287° (WNW) 04:37:24 435.822/435.867
O/OREOS (USA 219) 24 Mar 04:53:29 04:56:18 16° 260° (W) 04:59:06 437.305
AO-7 24 Mar 05:03:23 05:11:28 60° 292° (WNW) 05:19:33 .
KKS-1 24 Mar 05:18:48 05:22:31 26° 263° (W) 05:26:15 437.445
ISS 24 Mar 05:21:47 05:25:00 52° 226° (SW) 05:28:13 437.550
Tancredo 1 24 Mar 05:34:59 05:37:51 30° 229° (SW) 05:40:42 437.200
M-CUBED/EXP-1 PRIME 24 Mar 05:45:50 05:49:14 47° 70° (ENE) 05:52:55 437.505
CUTE-I 24 Mar 05:57:23 06:00:55 18° 94° (E) 06:04:27 437.470
CUBESAT XI-V 24 Mar 06:03:06 06:05:11 13° 268° (W) 06:07:16 437.345
STARS 24 Mar 06:03:41 06:06:50 19° 265° (W) 06:09:59 437.465
LilacSat-2 24 Mar 06:07:38 06:10:34 21° 96° (E) 06:13:30 437.200
AO-85 24 Mar 06:07:39 06:10:53 24° 54° (NE) 06:14:12 145.980
XW-2F 24 Mar 06:11:26 06:14:22 22° 96° (E) 06:17:16 145.980 - 146.000
NO-84 24 Mar 06:21:16 06:22:14 11° 124° (ESE) 06:23:11 435.350 FM
XW-2D 24 Mar 06:34:57 06:38:36 50° 100° (E) 06:42:14 145.860 - 145.880
XW-2B 24 Mar 06:40:46 06:44:28 58° 100° (E) 06:48:09 145.730 - 145.750
DOVE 4 24 Mar 06:44:07 06:49:28 88° 101° (E) 06:54:42 437.250
NUDT-PHONESAT 24 Mar 06:44:44 06:48:20 51° 99° (E) 06:51:54 437.300
KAITUO 1B 24 Mar 06:48:22 06:52:01 58° 101° (E) 06:55:39 145.475/437.950
XW-2C 24 Mar 06:50:47 06:54:33 84° 102° (ESE) 06:58:17 145.795 - 145.815
AO-7 24 Mar 07:01:00 07:02:31 11° 311° (NW) 07:04:01 .
STRAND 1 24 Mar 07:21:06 07:26:15 86° 75° (ENE) 07:31:26 437.568
CUTE-I 24 Mar 07:36:03 07:41:10 47° 288° (WNW) 07:46:15 437.470
XW-2A 24 Mar 07:40:49 07:44:00 38° 99° (E) 07:47:09 145.665 - 145.685
SEEDS 24 Mar 07:41:37 07:44:44 20° 95° (E) 07:47:50 437.485
LilacSat-2 24 Mar 07:41:58 07:44:42 19° 289° (WNW) 07:47:26 437.200
CUTE 1.7 + AOD 2 24 Mar 07:42:35 07:46:24 33° 98° (E) 07:50:12 437.475
XW-2F 24 Mar 07:45:42 07:48:21 19° 290° (WNW) 07:50:59 145.980 - 146.000
AO-85 24 Mar 07:48:00 07:51:09 22° 248° (WSW) 07:54:23 145.980
YUBILEINY 24 Mar 07:49:45 07:58:22 64° 92° (E) 08:06:56 435.215
NO-84 24 Mar 07:56:55 07:59:30 30° 317° (NW) 08:02:04 435.350 FM
HO-68 24 Mar 08:03:31 08:10:35 60° 102° (ESE) 08:17:38 435.675
UWE-3 24 Mar 08:05:47 08:08:15 15° 93° (E) 08:10:41 435.000/436.395/437.385
DOVE 4 24 Mar 08:25:34 08:26:18 10° 297° (WNW) 08:27:02 437.250
BEESAT 3 24 Mar 08:31:27 08:35:29 88° 64° (ENE) 08:39:28 437.485
CUBEBUG 2 24 Mar 08:32:09 08:36:30 56° 100° (E) 08:40:40 437.445
BEESAT 2 24 Mar 08:41:02 08:44:53 40° 57° (ENE) 08:48:41 435.950
Oscar 11 24 Mar 08:49:39 08:52:58 22° 95° (E) 08:56:17 .
FO-29 24 Mar 08:51:00 08:55:26 16° 61° (ENE) 08:59:43 435.910
ZACube-1 24 Mar 08:51:44 08:55:27 29° 97° (E) 08:59:05 437.345
PCSat 24 Mar 08:55:32 08:58:47 16° 104° (ESE) 09:02:01 145.827
JUGNU 24 Mar 09:06:03 09:09:33 16° 171° (S) 09:13:04 437.505
AAUSAT CUBESAT 2 24 Mar 09:08:51 09:12:58 71° 283° (WNW) 09:17:06 437.432
TIGRISAT 24 Mar 09:16:15 09:19:54 23° 69° (ENE) 09:23:34 435.000
SEEDS 24 Mar 09:16:51 09:20:21 26° 289° (WNW) 09:23:51 437.485
CUTE 1.7 + AOD 2 24 Mar 09:19:15 09:21:56 17° 291° (WNW) 09:24:38 437.475
DELFI C3 24 Mar 09:19:21 09:21:01 12° 93° (E) 09:22:40 145.870
AO-73 24 Mar 09:21:23 09:25:35 63° 100° (E) 09:29:40 145.935
UNISAT 6 24 Mar 09:25:04 09:29:10 31° 71° (ENE) 09:33:16 437.425
PRISM 24 Mar 09:25:43 09:29:43 66° 75° (ENE) 09:33:46 437.425
UWE-3 24 Mar 09:40:53 09:44:49 35° 288° (WNW) 09:48:39 435.000/436.395/437.385
YUBILEINY 24 Mar 09:49:04 09:55:42 24° 289° (WNW) 10:02:22 435.215
HO-68 24 Mar 09:52:23 09:57:44 23° 298° (WNW) 10:03:06 435.675
CUBEBUG 2 24 Mar 10:11:21 10:12:30 11° 295° (WNW) 10:13:41 437.445
BEESAT 2 24 Mar 10:20:11 10:22:15 14° 252° (WSW) 10:24:18 435.950
Oscar 11 24 Mar 10:25:27 10:29:01 26° 289° (WNW) 10:32:33 .
ZACube-1 24 Mar 10:28:35 10:31:28 18° 291° (WNW) 10:34:20 437.345
EO-79 24 Mar 10:30:57 10:32:01 11° 65° (ENE) 10:33:05 145.935-145.965
FO-29 24 Mar 10:31:34 10:39:27 87° 77° (ENE) 10:47:05 435.910
PCSat 24 Mar 10:36:20 10:41:38 55° 299° (WNW) 10:46:58 145.827
RS-15 24 Mar 10:45:51 10:48:44 11° 95° (E) 10:51:38 29.354- 29.394
DELFI C3 24 Mar 10:52:13 10:55:55 38° 286° (WNW) 10:59:37 145.870
TIGRISAT 24 Mar 10:52:15 10:56:22 30° 263° (W) 11:00:30 435.000
JUGNU 24 Mar 10:53:47 10:57:51 19° 181° (S) 11:01:57 437.505
POLYITAN 1 24 Mar 10:55:47 10:59:06 22° 70° (ENE) 11:02:25 437.675
QB50P2 24 Mar 10:59:57 11:03:33 27° 71° (ENE) 11:07:08 145.880/145.840
UNISAT 6 24 Mar 11:02:12 11:05:49 22° 265° (W) 11:09:28 437.425
SRMSAT 24 Mar 11:04:33 11:07:30 14° 168° (SSE) 11:10:27 437.500
DUCHIFAT 1 24 Mar 11:16:00 11:19:44 30° 72° (ENE) 11:23:28 145.980
AIST 2D 24 Mar 11:34:36 11:38:07 60° 260° (W) 11:41:37 435.315
LO-87 24 Mar 11:39:32 11:43:13 82° 101° (E) 11:46:50 145.935 - 145.965
BUGSAT 1 24 Mar 11:43:16 11:46:22 20° 69° (ENE) 11:49:30 437.445
NANOSAT C BR1 24 Mar 12:00:05 12:04:18 67° 259° (WSW) 12:08:34 145.865
EO-79 24 Mar 12:03:04 12:07:15 55° 260° (W) 12:11:28 145.935-145.965
VELOX 1 24 Mar 12:07:48 12:11:09 21° 95° (E) 12:14:29 145.980
ESTCUBE 1 24 Mar 12:19:42 12:24:12 77° 285° (WNW) 12:28:42 437.505/2401.250
FO-29 24 Mar 12:20:38 12:25:00 16° 269° (W) 12:29:21 435.910
Oscar 19 24 Mar 12:22:38 12:26:12 19° 66° (ENE) 12:29:46 437.125/150
POLYITAN 1 24 Mar 12:31:08 12:34:43 26° 264° (W) 12:38:18 437.675
QB50P2 24 Mar 12:36:00 12:39:15 21° 265° (W) 12:42:31 145.880/145.840
UKube-1 24 Mar 12:40:05 12:41:45 12° 93° (E) 12:43:23 .
JUGNU 24 Mar 12:42:59 12:46:10 15° 191° (S) 12:49:21 437.505
RS-15 24 Mar 12:47:03 12:58:43 68° 113° (ESE) 13:10:52 29.354- 29.394
50 SAT 24 Mar 12:48:59 12:52:15 36° 99° (E) 12:55:31 437.505
SRMSAT 24 Mar 12:51:51 12:55:58 19° 178° (S) 13:00:05 437.500
DUCHIFAT 1 24 Mar 12:52:30 12:55:24 18° 265° (W) 12:58:20 145.980
SPROUT 24 Mar 13:10:21 13:14:40 80° 283° (WNW) 13:18:55 437.525
BUGSAT 1 24 Mar 13:17:55 13:21:31 27° 263° (W) 13:25:09 437.445
DX 1 24 Mar 13:28:30 13:32:53 71° 102° (ESE) 13:37:14 434.975-435.025
VELOX 1 24 Mar 13:43:42 13:47:34 29° 289° (WNW) 13:51:25 145.980
Gurwin Techsat 1B 24 Mar 13:54:23 13:59:42 89° 76° (ENE) 14:05:03 435.225
Oscar 19 24 Mar 14:00:20 14:05:10 42° 261° (W) 14:10:01 437.125/150
ITAMSAT 1 24 Mar 14:04:24 14:07:43 17° 65° (ENE) 14:11:02 435.822/435.867
AO-7 24 Mar 14:07:21 14:14:04 28° 60° (ENE) 14:20:45 .
UKube-1 24 Mar 14:13:48 14:17:58 47° 286° (WNW) 14:22:07 .
50 SAT 24 Mar 14:24:31 14:24:54 10° 292° (WNW) 14:25:17 437.505
NO-84 24 Mar 14:32:53 14:35:34 23° 41° (NE) 14:38:27 435.350 FM
SO-50 24 Mar 14:36:33 14:40:44 33° 113° (ESE) 14:44:53 436.795
SRMSAT 24 Mar 14:40:42 14:44:27 17° 188° (S) 14:48:12 437.500
BEESAT 24 Mar 14:59:15 15:03:29 32° 98° (E) 15:07:41 436.000
RS-15 24 Mar 15:01:14 15:12:03 37° 315° (NW) 15:23:13 29.354- 29.394
ITUPSAT 1 24 Mar 15:13:34 15:18:08 45° 100° (E) 15:22:40 437.325
MOZHAYETS 4 24 Mar 15:37:30 15:41:35 32° 97° (E) 15:45:40
ITAMSAT 1 24 Mar 15:41:39 15:46:43 51° 260° (W) 15:51:49 435.822/435.867
AO-7 24 Mar 15:58:04 16:06:15 60° 256° (WSW) 16:14:28 .
NO-84 24 Mar 16:10:07 16:13:07 27° 233° (SW) 16:16:21 435.350 FM
SO-50 24 Mar 16:17:28 16:21:13 24° 308° (NW) 16:24:57 436.795
CUBESAT XI-V 24 Mar 16:24:16 16:27:09 16° 94° (E) 16:30:00 437.345
BEESAT 24 Mar 16:37:24 16:41:02 22° 292° (WNW) 16:44:40 436.000
ITUPSAT 1 24 Mar 16:52:39 16:55:33 16° 294° (WNW) 16:58:27 437.325
KKS-1 24 Mar 17:12:12 17:16:42 78° 102° (ESE) 17:21:10 437.445
XW-2D 24 Mar 17:13:57 17:16:13 15° 69° (ENE) 17:18:29 145.860 - 145.880
MOZHAYETS 4 24 Mar 17:15:13 17:18:30 20° 291° (WNW) 17:21:45
CUTE-I 24 Mar 17:15:42 17:19:43 22° 67° (ENE) 17:23:45 437.470
XW-2B 24 Mar 17:19:31 17:22:04 17° 70° (ENE) 17:24:36 145.730 - 145.750
O/OREOS (USA 219) 24 Mar 17:21:16 17:25:46 90° 318° (NW) 17:30:20 437.305
NUDT-PHONESAT 24 Mar 17:22:00 17:24:06 15° 69° (ENE) 17:26:12 437.300
RS-15 24 Mar 17:24:01 17:29:58 14° 348° (NNW) 17:35:54 29.354- 29.394
KAITUO 1B 24 Mar 17:26:01 17:28:26 16° 70° (ENE) 17:30:50 145.475/437.950
XW-2C 24 Mar 17:29:01 17:32:04 23° 72° (ENE) 17:35:07 145.795 - 145.815
DOVE 4 24 Mar 17:45:48 17:50:13 56° 74° (ENE) 17:54:58 437.250
STARS 24 Mar 17:54:55 17:59:21 81° 285° (WNW) 18:03:44 437.465
CUBESAT XI-V 24 Mar 18:00:17 18:04:37 40° 287° (WNW) 18:08:58 437.345
YUBILEINY 24 Mar 18:05:13 18:12:10 26° 71° (ENE) 18:19:05 435.215
LilacSat-2 24 Mar 18:19:02 18:22:50 68° 259° (WSW) 18:26:40 437.200
XW-2F 24 Mar 18:21:47 18:25:33 68° 258° (WSW) 18:29:21 145.980 - 146.000
HO-68 24 Mar 18:28:54 18:34:58 31° 65° (ENE) 18:41:02 435.675
CUTE 1.7 + AOD 2 24 Mar 18:32:53 18:35:24 16° 68° (ENE) 18:37:55 437.475
XW-2D 24 Mar 18:46:48 18:50:09 29° 263° (W) 18:53:29 145.860 - 145.880
XW-2B 24 Mar 18:52:51 18:56:03 25° 264° (W) 18:59:14 145.730 - 145.750
CUTE-I 24 Mar 18:54:25 18:59:26 41° 261° (W) 19:04:30 437.470
NUDT-PHONESAT 24 Mar 18:54:26 18:57:44 29° 263° (W) 19:01:03 437.300
KAITUO 1B 24 Mar 18:59:03 19:02:13 25° 263° (W) 19:05:23 145.475/437.950
M-CUBED/EXP-1 PRIME 24 Mar 19:01:01 19:05:40 72° 107° (ESE) 19:10:18 437.505
XW-2C 24 Mar 19:03:27 19:06:11 19° 265° (W) 19:08:55 145.795 - 145.815
CUBEBUG 2 24 Mar 19:26:11 19:30:24 32° 72° (ENE) 19:34:37 437.445
DOVE 4 24 Mar 19:26:53 19:28:20 11° 270° (W) 19:29:49 437.250
PCSat 24 Mar 19:27:37 19:32:57 55° 61° (ENE) 19:38:14 145.827
STRAND 1 24 Mar 19:35:27 19:40:13 38° 99° (E) 19:44:56 437.568
XW-2A 24 Mar 19:40:55 19:44:15 45° 261° (W) 19:47:34 145.665 - 145.685
RS-15 24 Mar 19:41:59 19:50:01 19° 26° (NNE) 19:57:53 29.354- 29.394
Oscar 11 24 Mar 19:42:54 19:44:19 11° 66° (ENE) 19:45:44 .
ZACube-1 24 Mar 19:44:31 19:47:30 17° 68° (ENE) 19:50:28 437.345
AAUSAT CUBESAT 2 24 Mar 19:55:13 19:59:06 43° 74° (ENE) 20:03:01 437.432
YUBILEINY 24 Mar 20:00:54 20:09:23 59° 269° (W) 20:17:51 435.215
SEEDS 24 Mar 20:04:02 20:08:09 62° 259° (W) 20:12:17 437.485
CUTE 1.7 + AOD 2 24 Mar 20:07:03 20:10:55 35° 262° (W) 20:14:46 437.475
AO-73 24 Mar 20:13:01 20:17:03 32° 72° (ENE) 20:21:04 145.935
HO-68 24 Mar 20:15:41 20:22:24 44° 260° (W) 20:29:11 435.675
AO-85 24 Mar 20:19:04 20:22:22 20° 111° (ESE) 20:25:30 145.980
ISS 24 Mar 20:23:10 20:25:52 24° 130° (SE) 20:28:33 437.550
Tancredo 1 24 Mar 20:32:45 20:35:40 35° 132° (SE) 20:38:35 437.200
UWE-3 24 Mar 20:33:00 20:37:40 75° 258° (WSW) 20:42:19 435.000/436.395/437.385
M-CUBED/EXP-1 PRIME 24 Mar 20:37:57 20:39:28 11° 300° (WNW) 20:41:00 437.505
CUBEBUG 2 24 Mar 21:03:21 21:06:59 22° 265° (W) 21:10:38 437.445
PCSat 24 Mar 21:12:32 21:15:48 16° 256° (WSW) 21:19:05 145.827
PRISM 24 Mar 21:12:32 21:14:04 12° 93° (E) 21:15:36 437.425
STRAND 1 24 Mar 21:15:19 21:19:05 21° 293° (WNW) 21:22:51 437.568
Oscar 11 24 Mar 21:15:44 21:19:56 53° 260° (W) 21:24:09 .
ZACube-1 24 Mar 21:19:11 21:23:26 38° 262° (W) 21:27:40 437.345
AAUSAT CUBESAT 2 24 Mar 21:33:25 21:34:45 11° 268° (W) 21:36:05 437.432
DELFI C3 24 Mar 21:33:36 21:37:28 68° 77° (ENE) 21:41:22 145.870
AO-73 24 Mar 21:50:00 21:53:16 19° 265° (W) 21:56:33 145.935
FO-29 24 Mar 21:50:52 21:51:49 10° 87° (E) 21:52:46 435.910
RS-15 24 Mar 21:53:59 22:06:04 58° 54° (NE) 22:17:32 29.354- 29.394
AO-85 24 Mar 21:58:31 22:02:34 33° 304° (WNW) 22:06:23 145.980
ISS 24 Mar 21:59:26 22:02:14 26° 325° (NW) 22:05:04 437.550
Tancredo 1 24 Mar 22:09:32 22:11:52 19° 327° (NNW) 22:14:15 437.200
LO-87 24 Mar 22:13:06 22:15:36 18° 70° (ENE) 22:18:07 145.935 - 145.965
BEESAT 3 24 Mar 22:18:09 22:21:37 32° 113° (ESE) 22:25:10 437.485
BEESAT 2 24 Mar 22:30:18 22:32:45 16° 109° (ESE) 22:35:13 435.950
PRISM 24 Mar 22:45:34 22:49:31 44° 286° (WNW) 22:53:29 437.425
TIGRISAT 24 Mar 22:46:49 22:51:14 76° 102° (ESE) 22:55:31 435.000
UNISAT 6 24 Mar 22:56:21 23:00:46 76° 285° (WNW) 23:05:05 437.425
VELOX 1 24 Mar 23:03:11 23:05:00 12° 65° (ENE) 23:06:48 145.980
AIST 2D 24 Mar 23:05:01 23:06:22 12° 93° (E) 23:07:44 435.315
SO-50 24 Mar 23:12:24 23:14:31 13° 47° (NE) 23:16:37 436.795
ESTCUBE 1 24 Mar 23:15:23 23:19:48 62° 75° (ENE) 23:24:13 437.505/2401.250
FO-29 24 Mar 23:31:45 23:37:45 76° 285° (WNW) 23:43:07 435.910
LO-87 24 Mar 23:46:08 23:48:53 21° 264° (W) 23:51:39 145.935 - 145.965
NANOSAT C BR1 24 Mar 23:48:24 23:51:51 24° 96° (E) 23:55:15 145.865
EO-79 24 Mar 23:51:29 23:55:11 29° 97° (E) 23:58:51 145.935-145.965
BEESAT 3 24 Mar 23:56:34 23:59:17 18° 309° (NW) 00:02:02 437.485
SPROUT 24 Mar 23:59:54 00:04:01 47° 74° (ENE) 00:08:09 437.525
BEESAT 2 25 Mar 00:06:37 00:10:13 33° 304° (NW) 00:13:51 435.950
RS-15 25 Mar 00:07:16 00:17:56 38° 255° (WSW) 00:28:10 29.354- 29.394
POLYITAN 1 25 Mar 00:18:35 00:22:48 65° 101° (ESE) 00:26:57 437.675
DX 1 25 Mar 00:20:29 00:24:29 37° 72° (ENE) 00:28:31 434.975-435.025
QB50P2 25 Mar 00:23:05 00:27:20 81° 102° (ESE) 00:31:33 145.880/145.840
AIST 2D 25 Mar 00:36:36 00:39:38 28° 287° (WNW) 00:42:40 435.315
VELOX 1 25 Mar 00:36:41 00:40:57 51° 260° (W) 00:45:16 145.980
DUCHIFAT 1 25 Mar 00:38:20 00:42:34 88° 281° (WNW) 00:46:44 145.980
SO-50 25 Mar 00:50:56 00:55:24 66° 244° (WSW) 00:59:50 436.795
50 SAT 25 Mar 00:51:40 00:54:57 42° 261° (W) 00:58:15 437.505
BUGSAT 1 25 Mar 01:02:29 01:06:34 53° 100° (E) 01:10:35 437.445
UKube-1 25 Mar 01:04:11 01:08:29 88° 81° (E) 01:12:50 .
NANOSAT C BR1 25 Mar 01:24:07 01:27:24 22° 290° (WNW) 01:30:41 145.865
EO-79 25 Mar 01:27:43 01:30:42 19° 291° (WNW) 01:33:40 145.935-145.965
SPROUT 25 Mar 01:38:33 01:40:08 12° 268° (W) 01:41:42 437.525
DX 1 25 Mar 01:58:15 02:00:46 15° 266° (W) 02:03:18 434.975-435.025
BEESAT 25 Mar 02:02:25 02:06:19 25° 69° (ENE) 02:10:13 436.000
Gurwin Techsat 1B 25 Mar 02:14:19 02:19:27 47° 100° (E) 02:24:32 435.225
Oscar 19 25 Mar 02:14:57 02:20:09 89° 101° (ESE) 02:25:20 437.125/150
ITUPSAT 1 25 Mar 02:16:50 02:21:12 35° 71° (ENE) 02:25:32 437.325
